SCP
0 0 0 0 0 0 0 0 0 0 0 0 0 0 0 0 0 0 0 0 0 0 0 0 0 0 0 0 0 0 0 0 0 0 0 0 0 0 0 0 0 0 0
0 0 0 0 0 0 0 0 0 0 0 0 0 0 0 0 0 0 0 0 0 0 0 0 0 0 0 0 0 0 0 0 0 0 0 0 0 0 0 0 0 0 0
0 0 0 0 0 0 0 0 0 0 0 0 0 0 0 0 0 0 0 0 0 0 0 0 0 0 0 0 0 0 0 0 0 0 0 0 0 0 0 0 0 0 0
0 0 0 0 0 0 0 0 0 0 0 0 0 0 0 0 0 0 0 0 0 0 0 0 0 0 0 0 0 0 0 0 0 0 0 0 0 0 0 0 0 0 0
0 0 0 0 0 0 0 0 0 0 0 0 0 0 0 0 0 0 0 0 0 0 0 0 0 0 0 0 0 0 0 0 0 0 0 0 0 0 0 0 0 0 0
0 0 0 0 0 0 0 0 0 0 0 0 0 0 0 0 0 0 0 0 0 0 0 0 0 0 0 0 0 0 0 0 0 0 0 0 0 0 0 0 0 0 0
0 0 0 0 0 0 0 0 0 0 0 0 0 0 0 0 0 0 0 0 0 0 0 0 0 0 0 0 0 0 0 0 0 0 0 0 0 0 0 0 0 0 0
0 0 0 0 0 0 0 0 0 0 0 0 0 0 0 0 0 0 0 0 0 0 0 0 0 0 0 0 0 0 0 0 0 0 0 0 0 0 0 0 0 0 0
0 0 0 0 0 0 0 0 0 0 0 0 0 0 0 0 0 0 0 0 0 0 0 0 0 0 0 0 0 0 0 0 0 0 0 0 0 0 0 0 0 0 0
0 0 0 0 0 0 0 0 0 0 0 0 0 0 0 0 0 0 0 0 0 0 0 0 0 0 0 0 0 0 0 0 0 0 0 0 0 0 0 0 0 0 0
0 0 0 0 0 0 0 0 0 0 0 0 0 0 0 0 0 0 0 0 0 0 0 0 0 0 0 0 0 0 0 0 0 0 0 0 0 0 0 0 0 0 0
0 0 0 0 0 0 0 0 0 0 0 0 0 0 0 0 0 0 0 0 0 0 0 0 0 0 0 0 0 0 0 0 0 0 0 0 0 0 0 0 0 0 0
0 0 0 0 0 0 0 0 0 0 0 0 0 0 0 0 0 0 0 0 0 0 0 0 0 0 0 0 0 0 0 0 0 0 0 0 0 0 0 0 0 0 0
0 0 0 0 0 0 0 0 0 0 0 0 0 0 0 0 0 0 0 0 0 0 0 0 0 0 0 0 0 0 0 0 0 0 0 0 0 0 0 0 0 0 0
0 0 0 0 0 0 0 0 0 0 0 0 0 0 0 0 0 0 0 0 0 0 0 0 0 0 0 0 0 0 0 0 0 0 0 0 0 0 0 0 0 0 0
0 0 0 0 0 0 0 0 0 0 0 0 0 0 0 0 0 0 0 0 0 0 0 0 0 0 0 0 0 0 0 0 0 0 0 0 0 0 0 0 0 0 0
0 0 0 0 0 0 0 0 0 0 0 0 0 0 0 0 0 0 0 0 0 0 0 0 0 0 0 0 0 0 0 0 0 0 0 0 0 0 0 0 0 0 0
0 0 0 0 0 0 0 0 0 0 0 0 0 0 0 0 0 0 0 0 0 0 0 0 0 0 0 0 0 0 0 0 0 0 0 0 0 0 0 0 0 0 0
0 0 0 0 0 0 0 0 0 0 0 0 0 0 0 0 0 0 0 0 0 0 0 0 0 0 0 0 0 0 0 0 0 0 0 0 0 0 0 0 0 0 0
0 0 0 0 0 0 0 0 0 0 0 0 0 0 0 0 0 0 0 0 0 0 0 0 0 0 0 0 0 0 0 0 0 0 0 0 0 0 0 0 0 0 0
0 0 0 0 0 0 0 0 0 0 0 0 0 0 0 0 0 0 0 0 0 0 0 0 0 0 0 0 0 0 0 0 0 0 0 0 0 0 0 0 0 0 0
0 0 0 0 0 0 0 0 0 0 0 0 0 0 0 0 0 0 0 0 0 0 0 0 0 0 0 0 0 0 0 0 0 0 0 0 0 0 0 0 0 0 0
0 0 0 0 0 0 0 0 0 0 0 0 0 0 0 0 0 0 0 0 0 0 0 0 0 0 0 0 0 0 0 0 0 0 0 0 0 0 0 0 0 0 0
0 0 0 0 0 0 0 0 0 0 0 0 0 0 0 0 0 0 0 0 0 0 0 0 0 0 0 0 0 0 0 0 0 0 0 0 0 0 0 0 0 0 0
0 0 0 0 0 0 0 0 0 0 0 0 0 0 0 0 0 0 0 0 0 0 0 0 0 0 0 0 0 0 0 0 0 0 0 0 0 0 0 0 0 0 0
0 0 0 0 0 0 0 0 0 0 0 0 0 0 0 0 0 0 0 0 0 0 0 0 0 0 0 0 0 0 0 0 0 0 0 0 0 0 0 0 0 0 0
Wind_Speed
2 2 2 2 2 2 3 3 3 4 4 5 5 5 6 6 5 5 6 11 10 10 9 10 10 9 9 9 9 8 8 8 8 7 7 7 7 7 6 6 6 6 7
2 2 2 2 2 2 2 3 4 3 3 3 5 5 5 5 5 5 5 7 10 10 10 10 9 8 9 9 9 8 8 7 7 7 7 7 7 7 7 6 6 6 7
2 2 2 3 3 3 3 3 4 3 3 3 4 4 4 5 4 5 5 4 5 9 10 10 10 9 9 9 8 8 7 7 7 7 7 7 7 7 6 6 6 6 6
2 2 2 2 3 3 3 3 3 3 3 3 3 3 4 3 4 4 4 4 4 4 8 11 11 11 10 9 9 8 7 7 7 7 7 7 7 6 6 6 6 6 6
2 2 2 2 3 3 3 3 3 3 3 3 3 3 3 3 4 4 4 5 5 4 5 7 9 11 10 10 10 9 8 8 8 8 7 7 6 6 6 7 8 8 8
2 2 2 3 3 3 3 3 4 3 3 3 3 4 3 3 3 3 4 4 4 5 5 5 4 6 9 10 10 9 9 9 8 8 8 7 7 7 7 7 8 8 8
2 3 2 3 2 2 3 4 3 4 3 2 3 3 3 4 4 3 3 3 4 5 4 4 3 3 4 8 9 9 9 9 8 8 8 8 8 7 7 7 8 8 8
2 2 4 3 3 3 3 3 3 2 2 1 0 1 2 3 3 3 2 2 3 3 4 4 4 4 3 3 7 9 9 9 9 8 8 8 8 7 7 7 7 7 7
2 3 4 3 3 4 4 4 4 4 2 1 0 1 1 1 1 2 3 2 3 3 3 3 3 4 4 4 4 7 9 8 8 8 8 8 7 7 7 7 7 7 7
2 3 3 4 4 3 3 4 4 3 2 1 1 1 1 1 1 1 1 2 3 3 3 2 3 3 3 4 6 9 9 8 8 8 8 8 7 7 7 7 7 7 7
2 2 3 3 3 3 3 3 3 3 2 2 1 1 1 1 2 1 1 1 2 2 2 2 2 2 3 3 4 7 9 9 8 8 8 8 8 8 7 7 7 7 7
2 2 3 3 3 3 3 3 3 4 3 2 2 2 2 2 2 1 2 1 1 1 2 2 2 2 2 3 5 8 7 7 8 9 9 9 9 8 7 7 6 6 7
2 3 3 3 3 3 4 4 4 3 3 3 3 2 1 1 1 1 1 1 1 1 1 1 1 1 1 2 4 5 6 6 7 8 9 9 9 9 8 7 7 7 7
2 2 3 3 3 3 4 4 3 3 3 3 3 2 2 1 2 2 2 2 2 1 1 1 1 1 1 1 3 1 5 6 6 7 8 8 9 9 9 8 8 8 9
2 3 3 3 3 3 3 3 3 3 3 2 2 2 2 2 2 2 2 3 2 2 1 1 1 1 1 1 2 1 4 7 6 6 7 7 8 8 8 8 8 8 8
2 3 3 3 3 3 3 3 3 3 3 2 2 3 3 2 2 2 2 3 3 2 1 1 1 2 2 1 2 2 4 7 6 5 6 6 6 7 7 8 7 7 8
3 3 3 3 3 3 3 3 4 4 4 4 3 3 3 3 2 2 2 2 2 2 2 1 1 2 3 2 2 2 2 2 4 6 5 5 5 5 6 6 7 7 7
2 3 3 3 3 4 3 3 4 4 4 4 4 3 3 2 3 2 2 3 2 2 2 2 2 2 2 2 2 2 2 1 2 6 5 4 4 4 5 5 5 5 6
3 3 3 3 4 4 4 4 4 4 4 4 4 4 3 3 4 3 3 3 2 2 2 3 3 2 2 2 2 2 2 1 1 4 4 3 3 3 3 4 4 4 4
3 3 3 3 3 3 3 3 4 4 3 3 3 3 3 3 4 3 3 3 3 3 3 3 3 3 2 2 3 3 2 2 1 2 2 2 4 4 3 2 2 2 2
3 3 3 3 3 3 2 2 2 3 3 3 3 3 2 0 1 1 2 2 3 3 3 3 3 3 3 3 3 3 3 2 2 1 2 2 3 3 3 4 3 2 2
3 2 2 3 2 2 2 1 2 3 3 3 3 2 2 3 3 3 2 1 2 3 3 4 3 4 4 4 3 3 3 3 2 2 3 2 3 2 2 2 3 4 3
3 3 3 3 3 2 3 2 3 3 3 2 2 2 2 2 3 4 5 5 4 3 4 4 4 4 4 4 4 4 4 4 2 2 3 3 3 3 3 2 5 4 4
3 3 3 3 2 2 3 3 3 4 3 3 2 3 3 3 2 3 3 3 3 3 4 4 4 3 3 3 4 4 4 4 3 2 3 3 3 3 3 3 6 5 5
3 3 3 3 3 3 4 3 3 3 2 2 2 2 2 2 2 2 3 4 4 3 3 2 0 1 1 1 3 3 4 4 3 3 4 3 3 3 3 4 5 8 6
3 3 3 3 3 3 4 4 4 2 2 2 1 1 1 1 2 3 4 4 4 4 3 4 4 4 4 5 6 6 5 5 4 3 4 4 3 3 3 3 3 4 5
Wind_Direction
109 114 114 105 98 100 106 95 91 83 74 67 61 58 60 59 60 63 73 66 62 63 65 67 65 62 65 67 69 70 69 69 69 68 67 65 64 66 70 65 65 62 65
131 127 112 107 105 99 95 106 100 90 80 72 65 60 54 55 56 62 66 80 71 62 60 63 64 66 66 67 68 69 71 71 72 71 70 68 66 66 67 64 66 63 64
145 133 123 120 122 117 112 98 96 87 87 86 78 67 57 48 50 56 61 61 79 76 63 58 57 61 64 63 63 64 66 69 72 72 72 68 67 67 65 63 66 69 69
146 141 135 121 122 120 116 106 101 101 91 80 74 66 66 62 56 55 65 73 61 67 76 63 55 53 55 56 58 59 62 66 68 70 69 67 64 63 60 58 61 77 82
170 152 135 136 129 127 119 112 99 86 83 76 73 69 61 61 60 60 63 64 69 68 73 81 68 53 47 49 53 54 58 64 68 68 67 66 63 61 58 60 66 78 81
165 142 152 147 130 133 126 121 114 102 85 81 75 69 65 69 69 60 56 64 64 65 61 64 78 77 58 48 46 48 53 58 64 65 67 63 62 63 63 66 69 74 77
170 156 168 153 150 144 143 139 124 118 110 101 101 95 92 74 62 72 60 60 68 63 63 66 56 55 78 70 49 44 47 52 54 58 63 61 65 67 63 65 71 74 74
173 175 179 167 163 155 159 149 143 145 136 167 122 139 131 124 82 69 76 67 61 71 58 54 59 60 47 60 67 51 43 46 49 56 58 61 65 68 70 68 73 77 77
163 176 178 174 171 173 169 170 172 176 175 174 295 328 329 74 95 96 67 70 60 56 61 49 44 53 51 48 58 62 44 42 48 54 55 56 59 66 74 73 74 77 80
162 175 171 173 174 180 178 187 188 189 191 205 208 303 330 75 244 139 118 89 70 60 55 52 41 47 52 57 62 51 45 42 47 51 51 50 53 63 73 76 76 76 80
138 160 173 180 180 181 186 187 188 209 211 235 250 224 169 200 241 213 150 137 109 80 69 57 51 48 51 60 62 60 53 45 47 50 50 48 48 55 66 71 72 76 83
149 158 175 188 191 187 188 191 201 211 231 239 257 242 217 226 218 205 195 178 132 97 84 71 53 60 61 70 71 67 60 53 53 51 51 50 49 52 59 65 67 74 83
165 173 183 201 198 192 195 198 207 217 218 231 249 258 255 255 242 234 209 188 182 155 128 109 79 72 76 82 86 84 82 67 63 58 53 52 51 50 51 57 62 73 78
187 187 192 202 200 199 202 200 211 211 219 223 235 245 246 246 244 216 222 210 212 207 181 138 111 80 68 94 78 198 100 86 74 69 63 59 56 54 51 54 63 70 74
192 190 196 201 196 198 209 206 205 205 212 232 240 240 239 230 233 227 221 227 241 236 197 162 150 126 126 82 94 125 98 92 84 77 71 65 62 60 58 56 64 70 73
197 189 199 196 190 192 203 205 206 206 207 217 240 247 242 239 227 222 221 230 252 259 230 149 151 148 122 133 109 111 94 106 95 86 80 75 72 71 68 66 63 68 73
199 193 200 202 194 194 199 197 206 205 212 217 220 226 232 235 223 217 219 220 234 243 201 175 139 148 159 159 140 131 122 129 110 100 92 87 83 79 77 75 70 67 70
203 207 203 200 199 204 206 206 210 214 218 223 227 223 222 215 220 219 220 219 217 226 200 180 167 174 178 173 158 155 150 131 121 107 102 94 92 89 87 82 79 71 67
202 203 200 203 207 208 204 207 218 218 219 227 234 233 228 215 216 205 212 216 211 195 185 182 172 163 178 176 168 164 168 164 155 133 138 131 116 107 101 101 95 84 80
207 207 202 205 206 207 208 206 218 219 222 226 236 243 237 228 228 213 211 209 200 189 184 183 175 176 173 177 192 187 180 179 186 156 132 137 144 154 148 132 121 109 100
212 212 208 208 201 205 203 211 218 222 220 219 224 234 239 241 334 250 230 214 203 196 187 188 185 183 183 182 200 199 192 192 187 191 187 187 183 193 182 179 184 179 164
218 199 204 195 195 192 114 223 250 228 226 221 217 214 196 190 180 176 178 193 221 213 205 201 200 200 202 199 195 198 199 204 203 193 217 210 207 210 206 194 150 167 189
204 197 200 196 199 161 146 181 249 244 230 234 228 213 209 205 207 201 183 184 192 216 231 231 222 225 218 205 199 202 207 215 225 180 209 226 215 223 218 166 147 173 197
199 208 201 203 199 174 160 178 233 234 224 222 215 211 213 210 211 214 196 191 196 204 215 224 230 230 226 204 205 209 204 212 225 193 213 240 220 233 228 200 164 189 209
195 205 203 202 204 189 167 186 227 218 216 218 218 221 227 214 164 223 209 200 195 194 179 190 318 126 105 150 207 200 195 202 214 205 199 237 233 237 235 221 183 186 205
201 204 203 211 210 208 170 188 227 223 213 206 205 205 207 241 178 239 226 218 216 209 198 189 196 191 194 182 199 213 207 215 221 212 187 216 223 223 236 213 208 198 205